This is the latest recevied weather packets stored in our database for station/object W4MLN-3. If no packets are shown the sender has not sent any weather packets the latest 1 day(s).
| Time | Temp. | Humidity | Pressure | Rain* | Wind** | Luminosity | Snow |
|---|---|---|---|---|---|---|---|
| 1778012703 | 20° C | 42% | 1014.3 hPa | 0 mm | 2.68 m/s, 180° | - | - |
| 1778012404 | 20° C | 43% | 1014.2 hPa | 0 mm | 2.68 m/s, 178° | - | - |
| 1778012103 | 20° C | 43% | 1014.2 hPa | 0 mm | 2.24 m/s, 166° | - | - |
| 1778011803 | 20° C | 43% | 1014.1 hPa | 0 mm | 2.24 m/s, 186° | - | - |
| 1778011545 | 20° C | 43% | 1014.1 hPa | 0 mm | 2.24 m/s, 190° | - | - |
| 1778011203 | 20° C | 44% | 1014.3 hPa | 0 mm | 2.68 m/s, 173° | - | - |
| 1778010903 | 20° C | 43% | 1014.4 hPa | 0 mm | 3.58 m/s, 169° | - | - |
| 1778010603 | 20° C | 43% | 1014.5 hPa | 0 mm | 3.13 m/s, 166° | - | - |
| 1778010303 | 20° C | 44% | 1014.5 hPa | 0 mm | 2.68 m/s, 173° | - | - |
| 1778010004 | 20° C | 45% | 1014.5 hPa | 0 mm | 2.68 m/s, 182° | - | - |
| 1778009703 | 20° C | 43% | 1014.5 hPa | 0 mm | 3.13 m/s, 169° | - | - |
| 1778009403 | 20° C | 42% | 1014.5 hPa | 0 mm | 3.13 m/s, 162° | - | - |
| 1778009103 | 20° C | 44% | 1014.4 hPa | 0 mm | 2.68 m/s, 164° | - | - |
| 1778008803 | 20° C | 43% | 1014.6 hPa | 0 mm | 3.13 m/s, 165° | - | - |
| 1778008503 | 20° C | 44% | 1014.8 hPa | 0 mm | 2.68 m/s, 172° | - | - |
| 1778008203 | 20° C | 42% | 1014.8 hPa | 0 mm | 2.68 m/s, 178° | - | - |
| 1778007903 | 20° C | 43% | 1014.8 hPa | 0 mm | 3.58 m/s, 167° | - | - |
| 1778007603 | 20° C | 42% | 1014.9 hPa | 0 mm | 3.58 m/s, 162° | - | - |
| 1778007303 | 20° C | 38% | 1015 hPa | 0 mm | 3.58 m/s, 160° | - | - |
| 1778007003 | 20° C | 38% | 1015.1 hPa | 0 mm | 4.02 m/s, 166° | - | - |
| 1778006724 | 20.56° C | 37% | 1015.1 hPa | 0 mm | 4.02 m/s, 167° | - | - |
| 1778006404 | 20.56° C | 39% | 1015.1 hPa | 0 mm | 3.58 m/s, 167° | - | - |
| 1778006103 | 20.56° C | 40% | 1015.1 hPa | 0 mm | 3.58 m/s, 166° | - | - |
| 1778005803 | 20.56° C | 38% | 1015 hPa | 0 mm | 3.58 m/s, 169° | - | - |
| 1778005503 | 20.56° C | 37% | 1015.1 hPa | 0 mm | 3.58 m/s, 174° | - | - |
* Rain latest hour (hover to see other rain measurements)
** Current wind speed in m/s (hover to see current wind gust speed)